Menut

operational
NORAD ID: 55010 Int'l Des: 2023-001 Owner: OCOSB/IEEC Country: E
LEOCIRCULARRETROGRADESSO

Über Menut

Beschreibung wird geladen...

Live-Position

3D-Globus wird geladen...

Nächste Überflüge

Höhenverlauf

Altitude vs Time

uPlot chart will show altitude changes over time

Zweizeiliger Elementsatz

1 55010U 23001B 26063.13874795 .00069991 00000-0 13186-2 0 9993
2 55010 97.3325 128.7412 0006629 130.3210 229.8621 15.48251356176082
Epoch: 4. März 2026 • Age: 15 hours

Aktueller Status

Höhe 430.7 km
Geschwindigkeit 7.66 km/s
Subsatellitenpunkt 76.55°N, 40.16°W
Startdatum 3. Jan. 2023
Alter 3.1 years
Typ other

Technische Details

Klassifizierung Payload
Masse 10.00 kg
Trockenmasse 10.00 kg
Gesamtmasse 10.00 kg
Länge 0.30 m
Durchmesser 0.20 m
Spannweite 0.30 m
Form Box+ 2 pan
Hersteller OCOSB
Bus-Typ Cubesat 6U
Phasenstatus In Orbit
Besitzer/Staat OCOSB/IEEC/E

Große Konstellationen

Loading constellations...